Tracking 25686 objects as of 25-May-2022
HD Live streaming from Space Station
objects crossing your sky now

CZ-3B R/B

Track CZ-3B R/B now!


NORAD ID: 39158
Int'l Code: 2013-020B
Perigee: 225.3 km
Apogee: 29,015.1 km
Inclination: 26.5 °
Period: 504.4 minutes
Semi major axis: 20991 km
RCS: 39.8107 m2 (large)
Launch date: May 1, 2013
Source: People's Republic of China (PRC)
Launch site: Xichang Space Center, China (XSC)

Note: This is a ROCKET BODY
aabbcc
Your satellite tracking list
Your tracking list is empty




NASA's NSSDC Master Catalog

Two Line Element Set (TLE):
1 39158U 13020B   22145.32026948  .00035357  00000-0  34288-2 0  9990
2 39158  26.5318 269.6330 6857600 137.6118 303.0109  2.85461232 76261
Source of the keplerian elements: AFSPC